SCP
0 0 0 1 1 1 2 2 2 2 2 2 2 2 2 2 1 1 1 2 2 3 3 2 2 2 1 1 1 1 1 1 1 1 1 1 1 1 2 4 4 4 4
0 0 0 1 2 2 2 3 3 2 2 2 2 2 2 2 1 1 1 2 2 3 3 2 2 1 1 1 1 1 1 1 1 1 1 1 1 1 2 3 3 3 4
0 0 1 1 2 3 3 3 3 2 2 2 2 3 3 2 2 1 1 2 2 3 3 3 2 1 1 1 1 1 1 1 1 1 1 1 1 1 1 2 3 3 3
0 0 1 1 2 2 3 2 2 2 2 3 3 3 3 2 2 2 2 2 2 3 3 3 2 2 2 2 1 1 1 1 1 1 1 1 1 1 1 2 3 3 2
0 0 1 1 1 2 2 1 1 1 2 3 4 4 3 2 2 2 2 2 2 3 3 3 2 2 2 2 2 1 1 1 1 1 1 0 1 1 1 2 2 2 2
1 1 1 1 1 2 2 2 1 1 2 3 5 4 3 3 2 2 3 3 2 2 3 3 2 2 2 2 1 1 1 1 1 0 0 0 1 1 1 1 1 2 2
1 1 1 1 1 1 2 2 2 2 2 3 5 5 4 3 2 2 2 2 2 2 2 2 2 2 1 1 1 1 1 1 1 0 0 0 1 1 1 1 1 2 2
1 1 1 1 1 1 2 3 3 2 2 3 4 4 4 3 2 2 1 1 1 2 2 2 2 1 1 1 1 1 1 1 1 0 0 0 1 1 1 1 1 1 1
1 1 1 1 1 1 1 2 3 3 3 3 4 4 3 3 2 1 1 1 1 1 1 1 1 1 1 1 1 1 1 1 1 0 0 0 1 1 1 1 1 1 1
1 1 1 1 1 1 1 2 3 3 3 3 3 3 3 2 1 1 1 1 1 1 1 1 1 1 1 1 1 1 1 0 0 0 0 0 1 1 1 1 1 1 1
2 1 1 1 1 1 2 2 2 2 2 3 3 2 2 1 1 1 1 1 1 1 1 1 1 1 1 1 1 0 0 0 0 0 0 1 1 1 1 1 1 2 1
2 2 1 1 1 1 1 2 2 2 2 2 2 1 1 1 1 1 0 0 0 0 0 1 0 0 0 0 0 0 0 0 0 0 0 1 1 1 1 1 1 2 2
2 2 1 1 1 1 1 1 2 2 1 1 1 1 1 0 0 0 0 0 0 0 0 0 0 0 0 0 0 0 0 0 0 0 0 1 1 1 1 1 1 2 2
3 2 2 1 1 1 1 1 1 1 1 1 1 1 0 0 0 0 0 0 0 0 0 0 0 0 0 0 0 0 0 0 0 0 0 1 1 1 1 1 1 1 2
3 3 2 1 1 1 1 1 1 1 1 1 1 0 0 0 0 0 0 0 0 0 0 0 0 0 0 0 0 0 0 0 0 0 0 1 1 1 1 1 1 1 1
3 3 2 2 1 1 1 1 1 1 1 1 1 0 0 0 0 0 0 0 0 0 0 0 0 0 0 0 0 0 0 0 0 0 0 0 1 1 1 1 1 1 1
3 2 2 2 1 1 1 1 1 1 1 1 0 0 0 0 0 0 0 0 0 0 0 0 0 0 0 0 0 0 0 0 0 0 0 0 0 1 1 1 1 1 1
2 2 2 1 1 1 1 1 1 1 0 1 1 1 1 0 0 0 0 0 0 0 0 0 0 0 0 0 0 0 0 0 0 0 0 1 1 0 1 1 1 1 1
2 2 2 1 1 1 1 1 1 1 0 1 1 1 0 0 0 0 0 0 0 0 0 0 0 0 0 0 0 0 0 0 0 0 0 0 0 0 1 1 1 1 1
2 2 2 1 1 1 1 1 1 1 0 0 1 0 0 0 0 0 0 0 0 0 0 0 0 0 0 0 0 0 0 0 0 0 0 0 0 0 1 1 1 1 0
2 2 2 1 1 1 1 1 1 1 0 0 0 0 0 0 0 0 0 0 0 0 0 0 0 0 0 0 0 0 0 0 0 0 0 0 0 0 0 1 0 0 0
2 2 2 1 1 1 1 1 1 1 0 0 0 0 0 0 0 0 0 0 0 0 0 0 0 0 0 0 0 0 0 0 0 0 0 0 0 0 0 0 0 0 0
3 2 2 1 1 1 1 1 0 0 0 0 0 0 0 0 0 0 0 0 0 0 0 0 0 0 0 0 0 0 0 0 0 0 0 0 0 0 0 0 0 0 0
3 3 3 2 1 1 0 0 0 0 0 0 0 0 0 0 0 0 0 0 0 0 0 0 0 0 0 0 0 0 0 0 0 0 0 0 0 0 0 0 0 0 0
3 3 3 2 1 1 0 0 1 0 0 0 0 0 0 0 0 0 0 0 0 0 0 0 0 0 0 0 0 0 0 0 0 0 0 0 0 0 0 0 0 0 0
3 4 3 2 1 1 1 1 1 0 0 0 0 0 0 0 0 0 0 0 0 0 0 0 0 0 0 0 0 0 0 0 0 0 0 0 0 0 0 0 0 0 0
Wind_Speed
1 1 5 7 7 7 8 8 10 10 10 11 12 12 12 12 12 12 12 12 12 12 12 12 12 12 11 11 11 10 9 9 9 8 8 8 7 6 8 9 8 6 9
2 1 6 7 8 8 9 9 10 10 11 11 12 12 12 12 12 12 12 12 12 12 12 12 12 12 11 10 10 10 9 9 9 9 8 7 7 8 9 10 9 6 9
4 3 4 7 8 9 9 10 10 11 11 11 12 12 12 12 12 12 12 12 13 12 12 12 12 11 10 10 10 10 10 10 10 9 8 4 5 10 11 11 10 10 11
5 3 4 8 8 9 10 10 10 10 11 11 12 12 12 12 12 11 12 12 13 13 13 12 11 11 10 10 10 10 10 10 9 8 5 4 4 10 11 11 11 11 11
5 4 5 8 9 9 10 10 11 11 11 11 12 12 12 12 11 11 12 12 13 13 13 12 11 10 10 10 10 10 10 10 9 7 4 4 4 9 11 11 10 10 10
5 3 5 8 9 9 9 10 11 11 11 11 12 12 12 12 12 11 12 13 13 13 12 12 11 10 10 10 10 9 9 9 7 4 4 3 3 8 10 10 10 10 10
4 3 4 7 8 8 9 10 11 11 11 11 12 12 12 12 12 13 14 13 13 12 12 11 11 10 10 10 10 10 9 9 6 4 3 3 5 9 10 9 9 9 9
5 3 4 7 7 8 9 9 10 10 11 11 11 12 11 12 12 13 13 12 12 12 11 11 10 10 10 10 10 9 9 8 6 5 4 3 7 9 9 8 9 9 9
5 4 2 2 4 7 8 9 9 10 10 10 11 11 11 11 11 11 11 12 12 11 10 10 10 10 10 10 10 10 9 9 5 3 4 3 7 9 9 9 9 9 9
4 3 2 2 2 3 4 8 9 9 10 10 10 10 10 10 10 11 10 10 11 11 10 10 9 9 9 10 10 10 9 7 4 3 2 4 9 9 9 9 9 8 8
4 2 2 2 2 3 4 6 6 7 8 8 7 9 8 4 5 5 8 10 10 10 10 10 10 9 9 9 9 9 7 3 3 3 2 6 9 9 9 9 9 9 9
3 2 2 2 3 2 3 4 3 3 3 4 3 4 3 3 4 5 8 10 10 10 10 10 10 8 6 4 6 6 3 3 3 2 3 8 9 9 8 8 8 8 8
4 4 3 3 2 2 2 3 2 2 2 3 4 4 3 3 3 4 3 4 5 7 5 7 6 4 4 3 3 3 3 3 2 2 3 8 8 8 8 8 8 8 8
4 4 4 4 3 2 2 2 2 2 2 2 2 4 3 3 3 3 2 2 3 3 3 4 3 4 5 4 4 4 4 3 2 2 3 7 8 8 8 8 7 7 8
4 4 4 4 4 3 2 2 3 2 2 2 2 2 3 3 2 2 2 2 3 3 3 3 4 5 5 5 4 5 4 4 3 3 3 7 8 8 8 7 7 8 8
4 4 4 4 4 3 3 2 2 2 2 2 2 2 3 3 3 3 3 3 3 3 3 3 4 4 4 4 4 4 4 4 4 3 3 4 7 8 8 8 8 8 8
5 5 5 5 4 4 3 3 3 2 3 2 2 2 4 4 4 3 3 2 2 3 4 4 4 4 4 4 4 4 4 3 4 4 3 3 3 6 8 8 8 8 8
5 5 5 5 5 4 3 3 3 2 3 2 2 2 3 4 4 4 3 2 2 3 3 3 3 3 3 3 3 3 3 3 4 4 3 3 2 3 5 8 8 8 8
6 6 5 4 5 5 4 3 3 3 3 2 2 2 2 3 4 4 3 2 3 3 3 3 3 2 3 2 2 3 3 3 3 3 3 3 2 2 2 4 7 7 7
5 6 5 5 5 5 3 3 3 3 2 2 2 2 2 2 4 4 3 2 3 3 3 3 3 3 2 2 3 4 3 2 2 2 2 2 2 2 2 3 3 4 7
4 5 4 5 4 4 3 3 3 2 1 1 1 2 3 3 3 4 3 3 3 3 2 3 2 3 2 2 3 3 3 3 3 2 1 2 2 2 3 3 3 2 2
5 5 5 5 5 4 3 3 3 2 1 1 1 1 2 3 3 4 4 3 2 3 3 2 2 2 1 1 2 2 2 3 3 3 2 1 1 1 2 3 2 2 2
4 5 5 5 5 5 4 3 3 3 2 1 1 0 0 2 3 3 4 3 3 3 2 2 2 3 1 1 1 3 2 1 2 3 2 1 1 1 1 1 2 2 1
5 5 5 5 5 5 5 5 5 3 2 2 2 1 0 1 2 2 3 3 3 2 2 2 2 2 2 0 1 0 2 3 2 1 3 2 1 1 1 1 1 1 1
5 5 5 5 4 4 5 5 5 3 2 1 1 1 1 0 1 2 2 3 3 2 2 2 2 2 2 2 1 0 1 1 2 2 1 2 2 1 0 1 1 1 1
3 4 4 5 4 4 5 5 5 5 4 3 2 2 1 0 0 1 2 2 2 2 2 2 2 2 2 2 1 1 2 2 2 2 2 1 1 2 1 0 1 1 1
Wind_Direction
307 318 75 75 75 71 73 76 73 70 70 69 69 69 73 77 80 85 88 93 94 95 95 97 100 101 104 105 103 102 103 103 99 97 96 98 99 106 113 112 108 109 116
162 106 80 77 78 77 77 79 75 74 74 73 72 71 75 77 79 82 85 90 93 92 93 94 96 97 97 96 97 98 100 99 96 93 90 87 89 102 111 110 109 110 114
126 103 86 83 83 85 84 82 78 76 75 75 75 75 76 78 81 84 88 91 94 94 95 97 97 97 96 95 94 95 95 94 90 87 82 63 77 99 107 109 110 107 105
122 106 91 86 86 89 90 88 83 79 78 78 77 78 79 80 80 83 87 90 92 93 94 95 96 96 95 91 90 93 91 89 88 84 73 65 74 96 104 108 108 106 104
111 103 95 91 89 89 93 93 89 85 83 81 79 78 79 80 81 85 90 92 92 92 92 92 94 93 92 91 90 92 90 86 84 80 68 64 73 97 102 105 106 104 105
113 107 103 99 95 93 93 92 92 91 88 84 81 79 78 78 76 81 96 94 93 93 92 91 90 92 93 95 99 97 95 90 82 75 71 69 81 99 102 102 104 106 107
124 116 113 107 102 98 97 96 94 93 90 85 82 79 79 80 78 83 93 93 92 92 91 88 86 87 89 92 96 98 99 95 86 77 71 72 91 105 104 104 105 107 107
128 122 116 111 107 105 105 104 100 96 92 89 86 81 81 83 84 84 89 89 90 89 88 86 85 84 81 84 90 94 95 90 87 81 77 81 97 102 101 104 106 107 106
123 110 100 113 110 109 109 106 104 100 96 93 91 87 84 85 86 88 89 90 89 87 84 82 83 83 80 81 85 89 89 81 77 77 91 89 99 101 99 99 105 105 105
112 111 101 86 96 103 108 108 106 103 100 95 91 87 84 84 84 84 85 87 87 82 78 78 82 84 80 81 84 85 83 78 66 62 75 100 102 102 102 99 102 103 103
112 114 115 99 104 107 112 107 98 95 93 91 87 86 79 65 64 73 77 79 80 76 72 73 75 80 80 78 79 79 75 65 68 64 73 101 104 102 100 96 95 100 99
138 143 140 119 111 110 113 99 82 78 77 73 73 78 73 66 60 66 62 64 66 66 65 65 65 67 67 64 68 69 64 63 68 73 89 100 101 102 101 97 95 97 98
156 142 139 140 129 120 105 108 91 75 72 67 74 80 77 66 60 56 52 47 45 52 49 50 51 50 60 68 69 67 65 69 58 64 86 96 99 99 97 95 93 93 95
142 142 143 142 134 123 116 115 109 101 89 84 81 89 86 77 69 63 57 48 42 42 47 47 50 56 63 69 75 72 67 70 62 53 75 90 94 96 94 90 89 90 93
141 145 148 144 141 137 121 118 107 106 106 102 89 90 97 94 90 76 60 53 49 47 51 52 54 60 60 65 69 75 74 70 64 58 57 80 86 88 90 91 92 90 89
151 149 147 137 137 129 126 122 115 120 113 97 86 95 104 104 102 92 74 58 51 54 57 63 66 64 59 65 66 70 75 73 66 65 56 64 76 85 88 88 88 87 85
160 154 149 145 133 127 127 129 118 118 113 107 101 99 104 107 108 102 91 72 59 63 66 64 58 57 63 62 60 63 70 70 72 67 63 55 54 72 84 87 86 85 83
155 151 154 145 136 134 129 124 117 113 112 110 103 98 100 106 107 103 99 88 78 73 69 71 62 61 55 56 56 52 60 66 68 68 64 59 52 53 66 79 83 84 82
161 152 146 140 140 138 135 128 113 110 104 100 97 100 108 111 108 107 102 92 84 74 66 76 64 75 70 58 67 57 47 59 65 74 65 63 63 65 56 67 73 75 77
159 151 147 137 137 132 121 103 87 87 85 87 97 104 112 114 111 108 104 90 85 81 64 65 71 58 71 66 75 60 36 35 51 66 75 66 59 72 74 67 59 57 65
149 147 149 141 143 134 122 120 116 122 116 89 96 114 118 120 116 111 109 101 94 94 94 94 86 63 45 53 69 41 19 26 40 40 45 64 59 63 79 80 73 60 45
156 152 150 154 152 148 146 144 143 138 131 123 102 93 122 131 128 124 124 120 113 101 87 83 88 80 40 51 96 81 28 3 4 17 17 58 65 70 79 83 80 80 65
160 164 164 163 154 150 139 117 100 79 65 63 68 51 142 140 139 136 136 131 127 128 130 128 116 113 113 354 79 124 131 200 318 339 2 22 40 81 96 89 89 83 94
177 170 161 161 155 149 138 132 138 144 156 190 187 186 191 143 139 140 150 143 142 139 146 160 133 127 126 118 342 51 149 157 146 331 332 346 2 79 138 136 128 120 109
171 164 162 151 149 152 149 147 148 148 164 162 144 145 147 105 129 150 158 147 152 152 159 157 138 135 141 155 166 146 81 72 113 142 269 325 347 336 269 191 163 164 175
150 145 148 143 145 155 156 155 155 157 159 148 154 163 174 155 120 172 163 152 160 160 169 174 167 161 165 155 151 147 153 156 174 156 177 234 288 309 322 279 205 201 199